Lid_Strength_Index
3 2 2 2 2 2 5 9 18 6 2 11 9 13 10 7 8 6 8 8 10 11 11 12 13 13 11 9 10 12 11 14 17 15 12 10 10 13 13 17 18 16 17 17
3 3 2 2 2 3 8 14 11 6 7 19 18 10 9 8 9 8 9 9 8 8 11 13 11 10 8 8 10 11 10 13 17 17 13 11 12 11 11 12 14 16 19 17
2 3 2 2 2 2 7 11 18 12 8 9 11 13 12 10 7 8 7 8 8 9 11 9 11 10 7 7 8 7 7 12 15 17 15 13 14 13 12 12 17 15 15 15
2 3 2 2 2 2 6 10 15 11 17 13 10 10 10 12 11 7 7 9 9 11 13 12 12 10 9 7 7 8 9 14 13 13 12 12 13 13 13 14 13 15 15 15
3 2 2 2 2 2 7 12 12 10 11 10 11 10 10 10 9 9 10 11 9 9 12 11 12 11 11 11 9 9 8 13 12 14 12 12 13 12 12 12 11 12 13 15
2 2 2 2 2 3 7 6 7 10 11 12 12 12 10 9 9 8 7 9 10 11 9 7 7 7 8 8 10 11 11 12 13 16 12 12 15 13 12 11 11 11 14 12
2 2 2 2 2 3 8 8 7 9 13 11 10 9 8 9 8 10 7 7 9 7 4 6 7 8 8 8 9 8 11 12 13 16 14 19 13 9 9 10 10 9 11 9
2 2 2 1 1 2 7 7 7 8 14 9 8 8 8 7 7 8 8 7 6 5 7 12 12 12 11 10 9 9 9 11 16 18 16 14 13 10 11 13 13 9 9 9
2 2 1 1 1 1 5 6 5 5 8 10 7 8 8 9 10 9 8 5 5 6 11 13 15 16 13 16 12 9 10 10 14 16 18 21 12 9 7 8 15 9 9 10
2 2 2 1 1 1 5 6 4 4 7 6 6 9 9 8 8 10 9 8 8 7 15 15 15 15 11 15 16 18 14 13 15 16 19 14 9 8 7 16 15 8 8 8
2 2 2 1 1 2 4 6 4 5 6 6 6 6 8 8 9 11 9 11 9 11 12 14 13 14 12 13 11 13 14 15 16 15 18 18 8 9 12 10 7 7 7 7
2 2 2 2 2 2 2 5 4 3 5 7 4 4 3 4 5 7 8 10 8 8 11 11 11 13 12 13 16 10 15 12 14 13 14 8 8 8 6 6 7 7 8 7
2 2 2 2 2 2 2 5 3 3 6 8 8 7 5 3 3 4 8 8 7 7 6 9 11 14 11 15 13 12 10 9 12 12 10 9 8 6 6 6 6 7 6 6
2 2 2 2 2 2 1 4 4 4 7 9 9 4 5 3 4 4 4 6 6 7 7 10 12 13 10 12 11 11 10 9 11 11 9 8 7 6 6 6 5 6 7 8
2 2 2 2 2 2 2 2 3 3 7 11 10 6 5 4 5 5 6 7 8 9 9 9 11 10 10 10 10 11 8 10 12 13 9 9 8 6 6 6 7 7 8 9
2 2 2 2 2 2 3 7 3 2 3 7 11 8 7 5 5 6 6 6 7 8 10 11 8 8 9 12 13 9 8 7 7 8 6 6 6 6 7 8 9 10 10 11
2 2 2 2 2 3 6 8 6 2 3 7 11 12 8 5 5 6 6 6 7 8 9 9 10 10 9 11 14 10 9 8 7 6 6 7 6 8 8 9 10 10 11 12
1 1 2 2 2 2 4 4 1 2 5 7 12 13 10 6 8 8 6 8 7 7 8 8 9 9 9 12 10 10 10 9 9 8 7 8 7 6 7 8 10 12 13 14
1 2 1 2 4 7 5 1 1 2 6 11 11 13 14 7 7 6 6 6 10 7 10 10 9 11 13 11 12 12 12 12 12 10 10 10 10 10 9 8 10 13 14 14
1 2 7 9 6 1 2 4 7 7 7 7 11 11 14 8 9 8 9 9 11 12 10 8 11 12 11 11 11 12 12 12 12 13 13 13 13 12 11 12 13 13 15 15
7 8 8 5 1 4 7 10 10 10 12 9 9 10 13 8 11 11 9 12 12 15 12 12 12 13 12 11 11 11 12 12 12 12 13 13 13 13 13 13 14 14 14 15
5 4 3 3 5 8 11 12 11 11 13 11 11 10 10 12 9 12 10 12 15 17 10 12 13 14 13 12 12 12 13 13 13 13 13 13 13 13 13 13 14 15 16 16
2 5 8 8 9 12 15 16 14 13 12 12 11 10 11 9 9 12 11 13 16 13 15 14 15 14 13 13 13 13 13 14 15 15 15 14 14 14 15 15 15 15 17 17
7 9 11 11 13 13 13 12 12 11 11 11 12 10 12 12 13 13 15 14 12 15 17 16 15 14 14 13 13 14 14 15 17 17 16 17 17 17 17 18 17 17 17 18
9 10 14 13 14 12 9 8 9 9 10 12 11 11 11 12 14 11 15 14 15 16 20 20 14 13 13 14 13 14 15 18 19 20 22 22 21 20 20 18 18 18 19 19
11 14 13 11 11 11 11 10 10 10 9 9 10 13 17 14 16 13 14 15 18 22 19 17 16 15 15 16 15 17 19 22 24 24 23 23 23 22 22 21 20 20 20 20
15 17 13 12 13 13 13 12 12 10 9 11 12 13 18 14 14 17 17 23 21 16 18 18 18 17 16 19 18 20 20 21 23 24 23 24 24 23 22 23 22 21 21 21